2017-008BS

Last updated on Wed Mar 01 2017 00:15:03 GMT+0000 (Coordinated Universal Time)

1 42012U 17008BS 17059.08902433 .00001532 00000-0 69781-4 0 9992 2 42012 97.5100 120.7078 0006463 231.7817 128.2841 15.22211894 1738

Satellite not in orbit

2017-008BS